User: anonymous   Login
Location: Unspecified
(0.0000°N, 0.0000°E)
Time: 16:28:56
(UTC+00:00)
Language:

NAVSTAR 64 (USA 206) - Orbit

View from above orbital plane
View from above orbital plane
View from above satellite
View from above satellite

Ground track
Ground track

The orbit data is extracted from the following two-line orbital elements,

1 35752U 09043A   16241.20314383 -.00000046  00000-0  00000+0 0  9996
2 35752  54.2282 171.3976 0045991  25.5757 259.5999  2.00573498 51530
Epoch (UTC): 28 August 2016 04:52:31
Eccentricity: 0.0045991
inclination: 54.2282°
perigee height: 20059 km
apogee height: 20303 km
right ascension of ascending node: 171.3976°
argument of perigee: 25.5757°
revolutions per day: 2.00573498
mean anomaly at epoch: 259.5999°
orbit number at epoch: 5153

The dashed part of the orbit path shows where the satellite is in the earth's shadow,  

DLR